Hourly Data Report for November 04, 2017

CARBERRY CS
MANITOBA

49°54'20.900" N
99°21'26.800" W
383.50 m
5010547
71170
WZE

Download Data

Hourly Data (November 2017)
Hourly Data Report for November 4, 2017
TIME
LST
Temp Definition
°C
Dew Point Definition
°C
Rel Hum Definition
%
Precip. Amount Definition
mm

Wind Dir Definition
10's deg

Wind Spd Definition
km/h
Visibility Definition
km
Stn Press Definition
kPa
Hmdx Definition


Wind Chill Definition


Weather Definition


00:00 -4.8 -6.4 88 0.0 8 18   97.62   -11 LegendNANA
01:00 -4.9 -6.3 90 0.0 8 15   97.54   -10 LegendNANA
02:00 -4.5 -6.1 89 0.0 9 19   97.39   -11 LegendNANA
03:00 -4.4 -6.0 89 0.0 10 19   97.27   -11 LegendNANA
04:00 -4.4 -6.1 88 0.0 10 22   97.12   -11 LegendNANA
05:00 -4.5 -6.1 88 0.0 9 22   97.02   -11 LegendNANA
06:00 -4.5 -5.9 90 0.3 10 18   96.97   -11 LegendNANA
07:00 -4.7 -5.9 91 0.7 9 14   96.85   -10 LegendNANA
08:00 -4.6 -5.9 91 0.5 8 11   96.80   -9 LegendNANA
09:00 -4.5 -5.9 90 0.8 10 17   96.64   -10 LegendNANA
10:00 -4.3 -5.6 91 0.7 10 18   96.55   -10 LegendNANA
11:00 -3.7 -5.1 90 0.7 10 14   96.48   -9 LegendNANA
12:00 -3.1 -5.0 87 0.2 12 15   96.35   -8 LegendNANA
13:00 -2.7 -4.3 89 0.6 12 11   96.22   -7 LegendNANA
14:00 -2.0 -3.7 88 0.2 17 8   96.15   -5 LegendNANA
15:00 -1.7 -3.2 90 0.2 21 6   96.09   -4 LegendNANA
16:00 -1.4 -3.6 85 0.0 25 14   96.09   -6 LegendNANA
17:00 -2.2 -4.2 86 0.0 26 23   96.11   -8 LegendNANA
18:00 -3.0 -4.8 88 0.0 26 19   96.12   -9 LegendNANA
19:00 -3.2 -5.5 84 0.0 27 18   96.13   -9 LegendNANA
20:00 -3.1 -6.0 80 0.0 27 22   96.17   -9 LegendNANA
21:00 -3.3 -5.9 83 0.0 26 19   96.19   -9 LegendNANA
22:00 -3.8 -6.6 81 0.0 28 25   96.24   -11 LegendNANA
23:00 -4.6 -7.1 83 0.0 28 24   96.29   -12 LegendNANA

Notes on Data Quality.

Legend

  • E = Estimated
  • M = Missing
  • NA = Not Available*
  • [empty] = Indicates an unobserved value
Date modified: